Location: Newark
(37.8333°N, 119.5000°W)
Time: 02:41:06
(UTC+00:00)

Courier 1B - Visible Passes

Search period start: 25 August 2019 00:00
Search period end: 04 September 2019 00:00
Orbit: 962 x 1209 km, 28.3° (Epoch: 24 August)

Date Brightness Start Highest point End Pass type
(mag) Time Alt. Az. Time Alt. Az. Time Alt. Az.
25 Aug 8.6 04:15:54 10° WSW 04:21:25 29° SSW 04:23:29 24° SSE visible
26 Aug 8.5 03:22:02 10° WSW 03:27:52 33° S 03:32:57 12° SE visible
26 Aug 9.3 05:16:55 10° WSW 05:19:50 17° SW 05:19:50 17° SW visible
27 Aug 8.9 04:22:40 10° WSW 04:27:33 22° SSW 04:29:20 19° S visible
28 Aug 8.9 03:28:34 10° WSW 03:34:00 26° SSW 03:38:51 12° SE visible
29 Aug 9.4 04:30:09 10° WSW 04:33:34 15° SSW 04:35:17 13° S visible
30 Aug 9.3 03:35:32 10° WSW 03:40:04 19° SSW 03:44:29 10° SSE visible
01 Sep 9.7 03:43:43 10° SW 03:46:02 12° SSW 03:48:19 10° S visible
02 Sep 9.6 02:48:28 10° WSW 02:52:33 16° SSW 02:56:30 10° S visible
